Location: Eurasberg
(48.3353°N, 11.0839°E)
Time: 05:51:05
(UTC+00:00)

ATLAS 2AS CENTAUR R/B - Pass Details

Date: 18 January 2026
Orbit: 1050 x 1161 km, 63.7° (Epoch: 10 February)

Event Time Altitude Azimuth Distance (km) Brightness Sun altitude
Exits shadow 03:16:43 38° 25° (NNE) 1,562 3.7 -36.5°
Maximum altitude 03:17:05 38° 32° (NNE) 1,555 3.7 -36.5°
Drops below altitude 10° 03:23:19 10° 99° (E) 2,865 5.7 -35.4°
Sets 03:26:10 0° 108° (ESE) 3,822 6.4 -35.0°
